EW9733 Weather Reports


Display with metric or nautical units.
time (UTC)temp
F
wind
direction
speed
MPH
gust
MPH
rain 1hr
in
rain 24hr
in
rain mn
in
humidity
%
barometer
mb
20260509183008 61 187 1.0 7.0 0.00 0.01 0.01 73 1011.1
20260509181508 60 153 2.0 10.0 0.00 0.01 0.01 78 1010.9
20260509180004 59 159 1.0 5.0 0.00 0.01 0.01 77 1011.6
20260509174503 60 169 1.0 9.0 0.00 0.01 0.01 72 1011.9
20260509173002 61 164 3.0 10.0 0.00 0.01 0.01 68 1012.0
20260509171500 61 198 3.0 7.0 0.00 0.01 0.01 67 1011.8
20260509170107 61 155 0.0 5.0 0.00 0.01 0.01 70 1011.9
20260509164559 60 249 0.0 7.0 0.00 0.01 0.01 70 1011.9
20260509163057 60 167 0.0 7.0 0.00 0.01 0.01 71 1011.9
20260509161552 59 181 2.0 8.0 0.00 0.01 0.01 71 1012.2
20260509160051 59 183 1.0 6.0 0.00 0.01 0.01 71 1012.3
20260509154549 59 180 0.0 8.0 0.00 0.01 0.01 72 1012.6
20260509153055 58 144 1.0 7.0 0.00 0.01 0.01 73 1012.8
20260509151540 56 158 2.0 7.0 0.00 0.01 0.01 75 1012.8
20260509150037 55 178 0.0 9.0 0.00 0.01 0.01 75 1012.7
20260509144534 54 131 1.0 5.0 0.00 0.01 0.01 76 1013.0
20260509143031 53 159 2.0 5.0 0.00 0.01 0.01 79 1013.3
20260509141527 52 139 0.0 4.0 0.00 0.01 0.01 83 1013.4
20260509140023 51 150 2.0 6.0 0.00 0.01 0.01 88 1013.7
20260509134519 50 195 1.0 5.0 0.00 0.01 0.01 91 1013.9
20260509133015 48 150 0.0 1.0 0.00 0.01 0.01 92 1013.9
20260509131513 46 155 0.0 2.0 0.00 0.01 0.01 91 1014.0
20260509130016 45 157 0.0 0.0 0.00 0.01 0.01 91 1013.9
20260509124504 45 157 0.0 0.0 0.00 0.01 0.01 90 1013.6
20260509123002 45 157 0.0 1.0 0.01 0.01 0.01 90 1013.9
20260509121501 44 157 0.0 0.0 0.01 0.01 0.01 90 1014.2
20260509120100 44 157 0.0 3.0 0.01 0.01 0.01 90 1014.5
20260509114604 44 158 0.0 5.0 0.01 0.01 0.01 90 1014.7
20260509113059 43 153 0.0 4.0 0.00 0.00 0.00 90 1014.7
20260509111555 42 167 0.0 5.0 0.00 0.00 0.00 91 1014.8
20260509110053 41 144 0.0 1.0 0.00 0.00 0.00 90 1014.6
20260509104553 40 144 0.0 0.0 0.00 0.00 0.00 90 1014.3
20260509103059 39 144 0.0 0.0 0.00 0.00 0.00 90 1014.0
20260509101559 38 144 0.0 0.0 0.00 0.00 0.00 89 1013.6
20260509100045 38 144 0.0 0.0 0.00 0.00 0.00 89 1013.5
20260509094551 37 144 0.0 0.0 0.00 0.00 0.00 88 1013.3
20260509093043 37 144 0.0 0.0 0.00 0.00 0.00 87 1013.3
20260509091544 37 144 0.0 0.0 0.00 0.00 0.00 86 1013.4
20260509090047 37 144 0.0 0.0 0.00 0.00 0.00 85 1013.2
20260509084544 38 144 0.0 0.0 0.00 0.00 0.00 85 1013.0
20260509083050 38 144 0.0 0.0 0.00 0.00 0.00 85 1013.2
20260509081535 38 144 0.0 0.0 0.00 0.00 0.00 84 1013.4
20260509080034 39 144 0.0 0.0 0.00 0.00 0.00 84 1013.5
20260509074532 39 144 0.0 0.0 0.00 0.00 0.00 84 1013.3
20260509073033 39 144 0.0 0.0 0.00 0.00 0.00 85 1013.4
20260509071535 39 144 0.0 0.0 0.00 0.00 0.00 84 1013.4
20260509070028 39 144 0.0 1.0 0.00 0.00 0.00 84 1013.3
20260509064527 39 136 1.0 4.0 0.00 0.00 0.00 84 1013.3
20260509063024 39 30 0.0 0.0 0.00 0.00 0.00 83 1012.9
20260509061523 40 30 0.0 0.0 0.00 0.00 0.00 83 1012.9
20260509060020 40 30 0.0 0.0 0.00 0.00 0.00 81 1012.9
20260509054519 40 30 0.0 1.0 0.00 0.00 0.00 80 1012.9
20260509053018 40 30 0.0 0.0 0.00 0.00 0.00 79 1013.0
20260509051515 41 29 0.0 0.0 0.00 0.00 0.00 78 1012.9
20260509050018 41 30 0.0 0.0 0.00 0.00 0.00 77 1012.9
20260509044510 42 29 0.0 0.0 0.00 0.00 0.00 76 1012.9
20260509043009 42 29 0.0 0.0 0.00 0.00 0.00 75 1012.7
20260509041505 43 29 0.0 0.0 0.00 0.00 0.00 75 1012.5
20260509040003 43 29 0.0 0.0 0.00 0.00 0.00 73 1012.4
20260509034502 44 29 0.0 0.0 0.00 0.00 0.00 73 1012.5
20260509033101 44 29 0.0 0.0 0.00 0.00 0.00 73 1012.5
20260509033001 44 29 0.0 0.0 0.00 0.00 0.00 73 1012.5
20260509031603 45 29 0.0 0.0 0.00 0.00 0.00 72 1012.4
20260509030114 45 29 0.0 0.0 0.00 0.00 0.00 72 1012.4
20260509024601 46 29 0.0 0.0 0.00 0.00 0.00 69 1012.2
20260509023058 46 29 0.0 0.0 0.00 0.00 0.00 68 1012.1
20260509021554 47 29 0.0 0.0 0.00 0.00 0.00 67 1012.0
20260509014549 47 29 0.0 2.0 0.00 0.00 0.00 66 1011.4
20260509013046 47 21 0.0 0.0 0.00 0.00 0.00 65 1011.2
20260509011545 48 21 0.0 0.0 0.00 0.00 0.00 64 1010.9
20260509010043 48 21 0.0 0.0 0.00 0.00 0.00 62 1010.6
20260509004552 49 21 0.0 0.0 0.00 0.00 0.00 60 1010.4
20260509003048 50 343 0.0 0.0 0.00 0.00 0.00 58 1010.0
20260509001535 51 343 0.0 0.0 0.00 0.00 0.00 55 1009.5
20260509000033 53 323 0.0 0.0 0.00 0.00 0.00 52 1009.3
20260508234531 54 277 0.0 1.0 0.00 0.00 0.00 49 1009.0
20260508233031 55 332 0.0 3.0 0.00 0.00 0.00 47 1008.8
20260508231531 56 271 0.0 5.0 0.00 0.00 0.00 48 1008.7
20260508230031 57 223 0.0 6.0 0.00 0.00 0.00 45 1008.6
20260508224538 58 267 2.0 8.0 0.00 0.00 0.00 43 1008.4
20260508223042 58 290 1.0 8.0 0.00 0.00 0.00 43 1008.2
20260508221530 58 190 0.0 10.0 0.00 0.00 0.00 43 1008.4
20260508220029 58 355 0.0 12.0 0.00 0.00 0.00 43 1008.3
20260508214529 59 303 1.0 11.0 0.00 0.00 0.00 42 1008.1
20260508213028 58 325 0.0 5.0 0.00 0.00 0.00 43 1008.0
20260508211528 60 277 3.0 15.0 0.00 0.00 0.00 43 1008.0
20260508210030 61 317 2.0 11.0 0.00 0.00 0.00 42 1008.0
20260508204529 59 181 1.0 13.0 0.00 0.00 0.00 41 1007.9
20260508203026 59 249 2.0 10.0 0.00 0.00 0.00 41 1007.7
20260508201527 59 306 4.0 11.0 0.00 0.00 0.00 41 1007.6
20260508200026 60 281 3.0 12.0 0.00 0.00 0.00 40 1007.4
20260508194533 61 264 3.0 13.0 0.00 0.00 0.00 38 1007.1
20260508193023 61 329 1.0 12.0 0.00 0.00 0.00 38 1007.2
20260508191532 60 347 3.0 10.0 0.00 0.00 0.00 35 1007.2
20260508190024 61 69 3.0 14.0 0.00 0.00 0.00 38 1007.2
20260508184524 60 155 1.0 15.0 0.00 0.00 0.00 36 1007.2